TimeEST,TemperatureF,Dew PointF,Humidity,Sea Level PressureIn,VisibilityMPH,Wind Direction,Wind SpeedMPH,Gust SpeedMPH,PrecipitationIn,Events,Conditions,WindDirDegrees,DateUTC
12:55 AM,8.1,-2.9,61,30.49,10.0,WSW,8.1,-,N/A,,Clear,250,2013-12-08 05:55:00
1:55 AM,5.0,-5.1,63,30.48,10.0,SW,8.1,-,N/A,,Clear,220,2013-12-08 06:55:00
2:55 AM,3.0,-5.1,69,30.48,10.0,SSW,6.9,-,N/A,,Partly Cloudy,200,2013-12-08 07:55:00
3:55 AM,1.9,-5.1,72,30.48,10.0,SSW,10.4,-,N/A,,Clear,200,2013-12-08 08:55:00
4:55 AM,1.9,-4.0,76,30.48,10.0,SW,8.1,-,N/A,,Partly Cloudy,220,2013-12-08 09:55:00
5:55 AM,1.9,-4.0,76,30.50,10.0,SSW,8.1,-,N/A,,Clear,210,2013-12-08 10:55:00
6:55 AM,3.0,-2.0,80,30.51,10.0,SW,5.8,-,N/A,,Clear,230,2013-12-08 11:55:00
7:55 AM,3.9,-0.9,80,30.51,10.0,SW,6.9,-,N/A,,Mostly Cloudy,230,2013-12-08 12:55:00
8:55 AM,3.0,-0.9,84,30.51,10.0,East,4.6,-,N/A,,Clear,90,2013-12-08 13:55:00
9:55 AM,7.0,1.0,77,30.50,10.0,Calm,Calm,-,N/A,,Clear,0,2013-12-08 14:55:00
10:55 AM,10.0,3.0,73,30.49,10.0,SSE,4.6,-,N/A,,Clear,150,2013-12-08 15:55:00
11:55 AM,12.9,3.0,65,30.48,10.0,WSW,4.6,-,N/A,,Partly Cloudy,240,2013-12-08 16:55:00
12:55 PM,15.1,3.0,59,30.46,10.0,Calm,Calm,-,N/A,,Overcast,0,2013-12-08 17:55:00
1:55 PM,16.0,5.0,62,30.43,10.0,Calm,Calm,-,N/A,,Overcast,0,2013-12-08 18:55:00
2:55 PM,16.0,6.1,65,30.40,10.0,East,5.8,-,N/A,,Overcast,90,2013-12-08 19:55:00
3:55 PM,17.1,6.1,62,30.39,10.0,ESE,5.8,-,N/A,,Overcast,110,2013-12-08 20:55:00
4:55 PM,17.1,5.0,59,30.37,10.0,ESE,5.8,-,N/A,,Overcast,110,2013-12-08 21:55:00
5:55 PM,17.1,8.1,68,30.34,10.0,ESE,5.8,-,N/A,,Overcast,110,2013-12-08 22:55:00
6:53 PM,17.6,12.2,79,30.25,2.5,East,6.9,-,0.01,Snow,Light Snow,90,2013-12-08 23:53:00
6:55 PM,17.1,12.0,81,30.30,2.5,East,8.1,-,0.01,Snow,Light Snow,100,2013-12-08 23:55:00
7:13 PM,17.1,12.0,81,30.26,2.0,East,5.8,-,0.00,Snow,Light Snow,90,2013-12-09 00:13:00
7:44 PM,17.1,12.0,81,30.23,1.8,East,6.9,-,0.01,Snow,Light Snow,80,2013-12-09 00:44:00
7:55 PM,17.1,12.9,84,30.27,1.8,East,6.9,-,0.01,Snow,Light Snow,90,2013-12-09 00:55:00
8:55 PM,16.0,12.9,88,30.24,1.8,East,6.9,-,0.03,Snow,Light Snow,80,2013-12-09 01:55:00
9:07 PM,17.1,12.9,84,30.18,2.0,ENE,6.9,-,0.00,Snow,Light Snow,70,2013-12-09 02:07:00
9:55 PM,17.1,12.9,84,30.19,2.5,East,6.9,-,0.01,Snow,Light Snow,80,2013-12-09 02:55:00
10:08 PM,17.1,12.9,84,30.14,3.0,East,5.8,-,0.00,Snow,Light Snow,80,2013-12-09 03:08:00
10:25 PM,17.1,12.9,84,30.13,2.5,East,5.8,-,0.00,Snow,Light Snow,90,2013-12-09 03:25:00
10:37 PM,17.1,14.0,88,30.12,2.0,East,5.8,-,0.01,Snow,Light Snow,80,2013-12-09 03:37:00
10:47 PM,18.0,14.0,84,30.12,1.5,East,4.6,-,0.01,Snow,Light Snow,90,2013-12-09 03:47:00
10:55 PM,18.0,14.0,84,30.16,1.5,East,6.9,-,0.01,Snow,Light Snow,90,2013-12-09 03:55:00
11:51 PM,19.4,15.8,86,30.07,2.0,ENE,4.6,-,0.02,Snow,Light Snow,70,2013-12-09 04:51:00
11:55 PM,19.0,15.1,85,30.11,1.8,ENE,4.6,-,0.02,Snow,Light Snow,70,2013-12-09 04:55:00